Voltar ao catálogo

PEGASUS DEB

AtivoPO
NORAD 39323·DEBRIS·🇺🇸 United States

Lançado May 19, 1994 de Vandenberg Space Force Base

Loading…

Próximas Passagens (próximas 24 horas)

TLE

EnvelhecendoSource: Space-Track

Época: Sep 7, 2026, 08:47 UTC

1 39323U 94029AFJ 26250.36641993  .00003286  00000-0  39821-3 0  9995
2 39323  81.9823 267.7048 0163856  77.1835 284.7625 14.74122918753601

Acompanhe PEGASUS DEB em tempo real com AllMySat

Download on the App Store